Location: Newark
(51.0500°N, 12.4500°E)
Time: 12:36:05
(UTC+00:00)

Tiros 1 - Pass Details

Date: 26 February 2020
Orbit: 630 x 664 km, 48.4° (Epoch: 05 April)

Event Time Altitude Azimuth Distance (km) Brightness Sun altitude
Rises 23:45:12 0° 222° (SW) 2,935 - -47.3°
Reaches altitude 10° 23:47:45 10° 211° (SSW) 2,023 - -47.3°
Maximum altitude 23:51:46 29° 151° (SSE) 1,157 - -47.2°
Drops below altitude 10° 23:55:47 10° 91° (E) 2,015 - -47.0°
Sets 23:58:19 0° 81° (E) 2,922 - -47.0°
